Date String (YYYY-MM-DD hh:mm:ss) UTC,Instrument flags,absolute air pressure of the measurement (hPa),sample flow rate (lpm),inlet stack bypass flow (lpm),air temperature of the measurement (°C),ambient temperature measured by the external sensor (°C),aerosol sample conditioner tube jacket temperature (°C),OPC LED temperature (°C),internal box temperature (°C),relative humidity of the measurement (%),span deviation,mass concentration of particles derived from Lorenz-Mie calculation of OPC scattering (μg/m³),mass concentration of particles derived from Lorenz-Mie calculation of OPC scattering (μg/m³),mass concentration of particles derived from Lorenz-Mie calculation of OPC scattering (μg/m³)
DateTimeUTC,F1_M11,P_M11,Q1_M11,Q2_M11,T1_M11,T2_M11,T3_M11,T4_M11,T5_M11,U1_M11,ZSPAN_M11,X0_M11,X2_M11,X1_M11
2023-06-04 06:00:00,SystemResetWarning,0833.9,4.99,000.00,030.3,028.7,000.0,038.6,031.9,28.7,0000.0,0006.70,0003.48,0003.23
2023-06-04 06:01:00,SystemResetWarning,0833.9,5.00,000.00,030.3,028.7,000.0,038.6,031.9,28.8,0000.0,0007.00,0003.58,0003.28
2023-06-04 06:02:00,SystemResetWarning,0833.8,4.99,000.00,030.3,028.7,000.0,038.6,031.9,28.8,0000.0,0007.24,0003.65,0003.33
2023-06-04 06:03:00,SystemResetWarning,0833.8,4.99,000.00,030.3,028.8,000.0,038.6,031.9,28.8,0000.0,0007.36,0003.69,0003.37
2023-06-04 06:04:00,SystemResetWarning,0833.9,4.99,000.00,030.3,028.8,000.0,038.6,031.9,28.9,0000.0,0007.56,0003.75,0003.40
2023-06-04 06:05:00,SystemResetWarning,0833.8,5.01,000.00,030.3,028.8,000.0,038.6,031.9,28.9,0000.0,0007.58,0003.75,0003.42
2023-06-04 06:06:00,SystemResetWarning,0833.9,5.01,000.00,030.3,028.8,000.0,038.6,031.9,29.0,0000.0,0007.49,0003.75,0003.42
2023-06-04 06:07:00,SystemResetWarning,0833.9,5.00,000.00,030.3,028.8,000.0,038.7,031.9,29.0,0000.0,0008.13,0003.74,0003.41
2023-06-04 06:08:00,SystemResetWarning,0833.9,4.99,000.00,030.3,028.8,000.0,038.7,031.9,29.0,0000.0,0007.82,0003.75,0003.41
2023-06-04 06:09:00,SystemResetWarning,0833.9,5.00,000.00,030.3,028.8,000.0,038.7,031.9,29.1,0000.0,0007.55,0003.73,0003.40
2023-06-04 06:10:00,SystemResetWarning,0833.9,5.00,000.00,030.3,028.8,000.0,038.7,031.9,29.1,0000.0,0008.14,0003.74,0003.40
2023-06-04 06:11:00,SystemResetWarning,0833.8,5.00,000.00,030.3,028.8,000.0,038.7,031.9,29.1,0000.0,0008.16,0003.75,0003.41
2023-06-04 06:12:00,SystemResetWarning,0833.8,5.00,000.00,030.3,028.8,000.0,038.7,031.9,29.2,0000.0,0008.07,0003.73,0003.42
2023-06-04 06:13:00,SystemResetWarning,0833.7,5.00,000.00,030.4,028.8,000.0,038.7,031.9,29.2,0000.0,0008.02,0003.70,0003.41
2023-06-04 06:14:00,SystemResetWarning,0833.8,5.00,000.00,030.4,028.8,000.0,038.7,032.0,29.1,0000.0,0007.99,0003.69,0003.42
2023-06-04 06:15:00,SystemResetWarning,0833.8,5.00,000.00,030.4,028.8,000.0,038.7,031.9,29.1,0000.0,0007.92,0003.69,0003.42
2023-06-04 06:16:00,SystemResetWarning,0833.8,5.00,000.00,030.4,028.8,000.0,038.7,032.0,29.1,0000.0,0007.89,0003.71,0003.43
2023-06-04 06:17:00,SystemResetWarning,0833.7,5.00,000.00,030.4,028.8,000.0,038.7,032.0,29.0,0000.0,0007.93,0003.73,0003.44
2023-06-04 06:18:00,SystemResetWarning,0833.8,5.01,000.00,030.4,028.8,000.0,038.7,032.0,29.0,0000.0,0007.41,0003.76,0003.46
2023-06-04 06:19:00,SystemResetWarning,0833.8,5.00,000.00,030.4,028.8,000.0,038.7,031.9,29.0,0000.0,0007.30,0003.77,0003.48
2023-06-04 06:20:00,SystemResetWarning,0833.8,4.99,000.00,030.4,028.8,000.0,038.7,032.0,29.1,0000.0,0007.36,0003.79,0003.49
2023-06-04 06:21:00,SystemResetWarning,0833.8,5.00,000.00,030.4,028.8,000.0,038.7,032.0,29.1,0000.0,0005.94,0003.79,0003.51
2023-06-04 06:22:00,SystemResetWarning,0833.7,5.01,000.00,030.4,028.8,000.0,038.7,032.0,29.2,0000.0,0005.83,0003.81,0003.51
2023-06-04 06:23:00,SystemResetWarning,0833.8,5.01,000.00,030.4,028.8,000.0,038.7,032.0,29.2,0000.0,0005.90,0003.81,0003.52
2023-06-04 06:24:00,SystemResetWarning,0833.8,5.00,000.00,030.4,028.8,000.0,038.7,032.0,29.2,0000.0,0005.88,0003.82,0003.54
2023-06-04 06:25:00,SystemResetWarning,0833.7,5.01,000.00,030.4,028.8,000.0,038.7,032.0,29.3,0000.0,0005.87,0003.84,0003.55
2023-06-04 06:26:00,SystemResetWarning,0833.7,5.00,000.00,030.4,028.8,000.0,038.8,032.0,29.3,0000.0,0005.80,0003.84,0003.56
2023-06-04 06:27:00,SystemResetWarning,0833.7,4.99,000.00,030.4,028.8,000.0,038.8,032.0,29.2,0000.0,0005.69,0003.83,0003.58
2023-06-04 06:28:00,SystemResetWarning,0833.7,4.99,000.00,030.4,028.8,000.0,038.8,032.0,29.2,0000.0,0005.67,0003.82,0003.59
2023-06-04 06:29:00,SystemResetWarning,0833.7,5.00,000.00,030.4,028.8,000.0,038.8,032.0,29.2,0000.0,0006.18,0003.84,0003.60
2023-06-04 06:30:00,SystemResetWarning,0833.7,5.00,000.00,030.4,028.8,000.0,038.8,032.0,29.2,0000.0,0006.59,0003.85,0003.60
2023-06-04 06:31:00,SystemResetWarning,0833.7,5.01,000.00,030.4,028.8,000.0,038.8,032.0,29.2,0000.0,0007.00,0003.88,0003.61
2023-06-04 06:32:00,SystemResetWarning,0833.7,5.00,000.00,030.4,028.8,000.0,038.8,032.0,29.1,0000.0,0007.38,0003.91,0003.62
2023-06-04 06:33:00,SystemResetWarning,0833.7,5.00,000.00,030.4,028.8,000.0,038.8,032.0,29.1,0000.0,0007.33,0003.88,0003.62
2023-06-04 06:34:00,SystemResetWarning,0833.7,5.00,000.00,030.4,028.8,000.0,038.8,032.0,29.1,0000.0,0007.41,0003.91,0003.63
2023-06-04 06:35:00,SystemResetWarning,0833.7,5.00,000.00,030.4,028.8,000.0,038.8,032.0,29.1,0000.0,0007.44,0003.93,0003.62
2023-06-04 06:36:00,SystemResetWarning,0833.7,5.01,000.00,030.4,028.8,000.0,038.8,032.0,29.0,0000.0,0007.48,0003.94,0003.62
2023-06-04 06:37:00,SystemResetWarning,0833.7,5.00,000.00,030.4,028.8,000.0,038.8,032.0,29.1,0000.0,0007.59,0003.93,0003.62
2023-06-04 06:38:00,SystemResetWarning,0833.7,5.00,000.00,030.4,028.8,000.0,038.8,032.0,29.2,0000.0,0007.69,0003.96,0003.62
2023-06-04 06:39:00,SystemResetWarning,0833.7,4.99,000.00,030.4,028.8,000.0,038.8,032.0,29.2,0000.0,0007.72,0003.98,0003.64
2023-06-04 06:40:00,SystemResetWarning,0833.7,4.99,000.00,030.4,028.8,000.0,038.8,032.0,29.2,0000.0,0007.51,0004.00,0003.65
2023-06-04 06:41:00,SystemResetWarning,0833.7,5.00,000.00,030.4,028.8,000.0,038.8,032.0,29.2,0000.0,0007.32,0004.02,0003.66
2023-06-04 06:42:00,SystemResetWarning,0833.7,5.00,000.00,030.4,028.8,000.0,038.8,032.0,29.2,0000.0,0007.44,0004.01,0003.66
2023-06-04 06:43:00,SystemResetWarning,0833.7,4.99,000.00,030.4,028.8,000.0,038.8,032.0,29.2,0000.0,0007.51,0004.02,0003.67
2023-06-04 06:44:00,SystemResetWarning,0833.7,5.01,000.00,030.4,028.8,000.0,038.8,032.0,29.2,0000.0,0007.58,0004.06,0003.69
2023-06-04 06:45:00,SystemResetWarning,0833.6,5.00,000.00,030.4,028.8,000.0,038.8,032.0,29.2,0000.0,0007.52,0004.03,0003.69
2023-06-04 06:46:00,SystemResetWarning,0833.7,5.00,000.00,030.4,028.8,000.0,038.8,032.0,29.2,0000.0,0007.48,0004.02,0003.69
2023-06-04 06:47:00,SystemResetWarning,0833.7,5.00,000.00,030.4,028.8,000.0,038.8,032.0,29.3,0000.0,0007.42,0004.01,0003.70
2023-06-04 06:48:00,SystemResetWarning,0833.7,4.99,000.00,030.4,028.8,000.0,038.8,032.0,29.4,0000.0,0007.32,0004.02,0003.71
2023-06-04 06:49:00,SystemResetWarning,0833.6,4.99,000.00,030.4,028.8,000.0,038.8,032.0,29.4,0000.0,0007.23,0004.01,0003.71
2023-06-04 06:50:00,SystemResetWarning,0833.6,5.00,000.00,030.4,028.8,000.0,038.8,032.0,29.4,0000.0,0007.22,0004.01,0003.71
2023-06-04 06:51:00,SystemResetWarning,0833.7,5.01,000.00,030.4,028.8,000.0,038.8,032.0,29.4,0000.0,0007.21,0004.00,0003.70
2023-06-04 06:52:00,SystemResetWarning,0833.7,5.01,000.00,030.4,028.8,000.0,038.8,032.0,29.4,0000.0,0007.05,0003.95,0003.70
2023-06-04 06:53:00,SystemResetWarning,0833.7,5.00,000.00,030.4,028.8,000.0,038.8,032.0,29.3,0000.0,0006.65,0003.96,0003.70
2023-06-04 06:54:00,SystemResetWarning,0833.7,5.00,000.00,030.4,028.8,000.0,038.8,032.0,29.3,0000.0,0006.17,0003.97,0003.70
2023-06-04 06:55:00,SystemResetWarning,0833.7,4.99,000.00,030.4,028.8,000.0,038.8,032.0,29.3,0000.0,0006.17,0003.97,0003.70
2023-06-04 06:56:00,SystemResetWarning,0833.6,5.00,000.00,030.4,028.8,000.0,038.8,032.0,29.2,0000.0,0006.16,0003.98,0003.70
2023-06-04 06:57:00,SystemResetWarning,0833.7,5.00,000.00,030.4,028.8,000.0,038.8,032.0,29.2,0000.0,0006.16,0003.99,0003.70
2023-06-04 06:58:00,SystemResetWarning,0833.7,4.99,000.00,030.4,028.8,000.0,038.8,032.0,29.1,0000.0,0006.25,0004.02,0003.71
2023-06-04 06:59:00,SystemResetWarning,0833.6,4.99,000.00,030.4,028.8,000.0,038.8,032.0,29.0,0000.0,0006.30,0004.02,0003.69
